Location: Poughquag
(41.6090°N, 73.6820°W)
Time: 14:39:25
(UTC-04:00)

Vanguard 3 - Pass Details

Date: 07 June 2020
Orbit: 510 x 3261 km, 33.3° (Epoch: 05 July)

Event Time Altitude Azimuth Distance (km) Brightness Sun altitude
Rises 04:41:59 0° 265° (W) 7,165 11.5 -6.7°
Reaches altitude 10° 04:47:10 10° 263° (W) 5,985 11.0 -6.0°
Maximum altitude 05:04:19 59° 190° (S) 2,540 9.5 -3.4°
Drops below altitude 10° 05:14:40 10° 114° (ESE) 3,773 11.1 -1.8°
Sets 05:17:11 0° 110° (ESE) 4,458 11.5 -1.4°
